Location: Cornospital
(48.0620°N, 3.3837°W)
Time: 20:22:55
(UTC+00:00)

ALOS 2 - Pass Details

Date: 17 June 2021
Orbit: 630 x 632 km, 97.9° (Epoch: 03 August)

Event Time Altitude Azimuth Distance (km) Brightness Sun altitude
Exits shadow 22:32:55 14° 109° (ESE) 1,754 4.5 -15.0°
Maximum altitude 22:35:35 24° 64° (ENE) 1,319 4.3 -15.2°
Drops below altitude 10° 22:39:06 10° 11° (N) 2,026 6.1 -15.4°
Sets 22:41:38 0° 357° (N) 2,939 7.4 -15.5°
